User: anonymous   Login
Location: Unspecified
(0.0000°N, 0.0000°E)
Time: 06:43:24
(UTC+00:00)
Language:

Nimbus 3 - Orbit

View from above orbital plane
View from above orbital plane
View from above satellite
View from above satellite

Ground track
Ground track

The orbit data is extracted from the following two-line orbital elements,

1  3890U 69037A   18321.59233340 -.00000030 +00000-0 +25901-4 0  9994
2  3890 099.9266 229.2936 0038859 230.6112 199.3569 13.42523524429260
Epoch (UTC): 17 November 2018 14:12:57
Eccentricity: 0.0038859
inclination: 99.9266°
perigee height: 1071 km
apogee height: 1129 km
right ascension of ascending node: 229.2936°
argument of perigee: 230.6112°
revolutions per day: 13.42523524
mean anomaly at epoch: 199.3569°
orbit number at epoch: 42926

The dashed part of the orbit path shows where the satellite is in the earth's shadow,  

DLR